| time (UTC) | temp C | wind direction | speed KPH | gust KPH | rain 1hr cm | rain 24hr cm | rain mn cm | humidity % | barometer mb |
| 20260506015029 | 7 | 10 | 6.4 | 12.9 | 0.00 | 0.00 | 0.00 | 97 | 1010.0 |
| 20260506014528 | 7 | 7 | 6.4 | 14.5 | 0.00 | 0.00 | 0.00 | 97 | 1010.2 |
| 20260506014030 | 7 | 9 | 8.0 | 14.5 | 0.00 | 0.00 | 0.00 | 97 | 1010.2 |
| 20260506013529 | 7 | 0 | 6.4 | 12.9 | 0.00 | 0.00 | 0.00 | 96 | 1010.0 |
| 20260506013029 | 7 | 16 | 6.4 | 12.9 | 0.00 | 0.00 | 0.00 | 96 | 1009.6 |
| 20260506012529 | 7 | 9 | 6.4 | 16.1 | 0.00 | 0.00 | 0.00 | 96 | 1009.6 |
| 20260506012028 | 7 | 22 | 4.8 | 8.0 | 0.00 | 0.00 | 0.00 | 96 | 1010.0 |
| 20260506011530 | 7 | 21 | 3.2 | 9.7 | 0.00 | 0.00 | 0.00 | 96 | 1009.8 |
| 20260506011028 | 7 | 31 | 3.2 | 9.7 | 0.00 | 0.00 | 0.00 | 96 | 1009.7 |
| 20260506010528 | 7 | 16 | 4.8 | 11.3 | 0.00 | 0.00 | 0.00 | 96 | 1009.5 |
| 20260506010028 | 7 | 15 | 6.4 | 12.9 | 0.00 | 0.00 | 0.00 | 96 | 1009.5 |
| 20260506005529 | 7 | 0 | 3.2 | 14.5 | 0.00 | 0.00 | 0.00 | 96 | 1009.6 |
| 20260506005029 | 7 | 17 | 9.7 | 17.7 | 0.00 | 0.00 | 0.00 | 96 | 1009.7 |
| 20260506004528 | 7 | 10 | 4.8 | 14.5 | 0.00 | 0.00 | 0.00 | 96 | 1009.7 |
| 20260506004030 | 7 | 14 | 8.0 | 14.5 | 0.00 | 0.00 | 0.00 | 96 | 1009.7 |
| 20260506003529 | 7 | 11 | 6.4 | 14.5 | 0.00 | 0.00 | 0.00 | 96 | 1009.3 |
| 20260506003029 | 7 | 10 | 8.0 | 16.1 | 0.00 | 0.00 | 0.00 | 96 | 1009.3 |
| 20260506002529 | 7 | 12 | 6.4 | 14.5 | 0.00 | 0.00 | 0.00 | 96 | 1009.3 |
| 20260506002028 | 7 | 22 | 6.4 | 17.7 | 0.00 | 0.00 | 0.00 | 96 | 1009.2 |
| 20260506001529 | 7 | 10 | 11.3 | 19.3 | 0.00 | 0.00 | 0.00 | 96 | 1009.1 |
| 20260506001029 | 7 | 354 | 3.2 | 14.5 | 0.00 | 0.00 | 0.00 | 95 | 1009.1 |
| 20260506000531 | 7 | 14 | 6.4 | 14.5 | 0.00 | 0.00 | 0.00 | 95 | 1009.1 |
| 20260506000029 | 7 | 12 | 8.0 | 14.5 | 0.00 | 0.00 | 0.00 | 95 | 1009.1 |
| 20260505235528 | 7 | 13 | 8.0 | 14.5 | 0.00 | 0.00 | 0.00 | 95 | 1008.9 |
| 20260505235028 | 7 | 334 | 3.2 | 14.5 | 0.00 | 0.00 | 0.00 | 95 | 1008.9 |
| 20260505234529 | 7 | 338 | 4.8 | 14.5 | 0.00 | 0.00 | 0.00 | 95 | 1008.6 |
| 20260505234028 | 7 | 359 | 4.8 | 11.3 | 0.00 | 0.00 | 0.00 | 95 | 1008.6 |
| 20260505233529 | 7 | 348 | 6.4 | 14.5 | 0.00 | 0.00 | 0.00 | 95 | 1008.6 |
| 20260505233028 | 7 | 17 | 6.4 | 19.3 | 0.00 | 0.00 | 0.00 | 95 | 1008.4 |
| 20260505232529 | 7 | 23 | 6.4 | 14.5 | 0.00 | 0.00 | 0.00 | 95 | 1008.7 |
| 20260505232030 | 7 | 0 | 4.8 | 16.1 | 0.00 | 0.00 | 0.00 | 95 | 1008.7 |
| 20260505231529 | 7 | 0 | 8.0 | 16.1 | 0.00 | 0.00 | 0.00 | 95 | 1008.8 |
| 20260505231028 | 7 | 29 | 6.4 | 12.9 | 0.00 | 0.00 | 0.00 | 95 | 1008.7 |
| 20260505230530 | 7 | 26 | 6.4 | 14.5 | 0.00 | 0.00 | 0.00 | 95 | 1008.5 |
| 20260505230028 | 7 | 350 | 8.0 | 16.1 | 0.00 | 0.00 | 0.00 | 95 | 1008.4 |
| 20260505225529 | 7 | 7 | 4.8 | 16.1 | 0.00 | 0.00 | 0.00 | 95 | 1008.2 |
| 20260505225028 | 7 | 349 | 6.4 | 17.7 | 0.00 | 0.00 | 0.00 | 95 | 1008.2 |
| 20260505224528 | 7 | 7 | 6.4 | 20.9 | 0.00 | 0.00 | 0.00 | 95 | 1008.2 |
| 20260505224028 | 7 | 25 | 9.7 | 20.9 | 0.00 | 0.00 | 0.00 | 95 | 1008.0 |
| 20260505223528 | 8 | 345 | 4.8 | 14.5 | 0.00 | 0.00 | 0.00 | 95 | 1008.1 |
| 20260505223029 | 8 | 8 | 6.4 | 12.9 | 0.00 | 0.00 | 0.00 | 95 | 1007.8 |
| 20260505222528 | 8 | 0 | 6.4 | 14.5 | 0.00 | 0.00 | 0.00 | 95 | 1008.1 |
| 20260505222029 | 8 | 18 | 6.4 | 12.9 | 0.00 | 0.00 | 0.00 | 95 | 1008.2 |
| 20260505221529 | 8 | 2 | 3.2 | 16.1 | 0.00 | 0.00 | 0.00 | 95 | 1008.4 |
| 20260505221030 | 8 | 355 | 6.4 | 9.7 | 0.00 | 0.00 | 0.00 | 95 | 1008.4 |
| 20260505220528 | 8 | 356 | 4.8 | 12.9 | 0.00 | 0.00 | 0.00 | 94 | 1008.4 |
| 20260505220028 | 8 | 354 | 6.4 | 16.1 | 0.00 | 0.00 | 0.00 | 94 | 1008.1 |
| 20260505215529 | 8 | 17 | 8.0 | 20.9 | 0.00 | 0.00 | 0.00 | 94 | 1007.9 |
| 20260505215028 | 8 | 17 | 8.0 | 17.7 | 0.00 | 0.00 | 0.00 | 94 | 1007.7 |
| 20260505214531 | 8 | 346 | 9.7 | 16.1 | 0.00 | 0.00 | 0.00 | 94 | 1007.9 |
| 20260505214029 | 9 | 17 | 9.7 | 16.1 | 0.00 | 0.00 | 0.00 | 94 | 1007.8 |
| 20260505213528 | 9 | 7 | 8.0 | 14.5 | 0.00 | 0.00 | 0.00 | 94 | 1007.9 |
| 20260505213029 | 9 | 348 | 6.4 | 17.7 | 0.00 | 0.00 | 0.00 | 94 | 1007.9 |
| 20260505212529 | 9 | 5 | 4.8 | 14.5 | 0.00 | 0.00 | 0.00 | 94 | 1007.9 |
| 20260505212030 | 9 | 14 | 6.4 | 14.5 | 0.00 | 0.00 | 0.00 | 94 | 1007.7 |
| 20260505211528 | 9 | 21 | 8.0 | 14.5 | 0.00 | 0.00 | 0.00 | 94 | 1007.9 |
| 20260505211031 | 9 | 352 | 3.2 | 14.5 | 0.00 | 0.00 | 0.00 | 94 | 1007.9 |
| 20260505210531 | 9 | 13 | 6.4 | 14.5 | 0.00 | 0.00 | 0.00 | 94 | 1007.8 |
| 20260505210030 | 10 | 2 | 8.0 | 16.1 | 0.00 | 0.00 | 0.00 | 94 | 1007.9 |
| 20260505205529 | 10 | 5 | 4.8 | 12.9 | 0.00 | 0.00 | 0.00 | 94 | 1007.9 |
| 20260505205031 | 10 | 6 | 4.8 | 16.1 | 0.00 | 0.00 | 0.00 | 94 | 1007.9 |
| 20260505204530 | 10 | 11 | 8.0 | 16.1 | 0.00 | 0.00 | 0.00 | 95 | 1007.7 |
| 20260505204030 | 10 | 9 | 6.4 | 19.3 | 0.00 | 0.00 | 0.00 | 95 | 1007.7 |
| 20260505203530 | 10 | 358 | 9.7 | 17.7 | 0.00 | 0.00 | 0.00 | 95 | 1007.5 |
| 20260505203028 | 10 | 12 | 6.4 | 12.9 | 0.00 | 0.00 | 0.00 | 95 | 1007.8 |
| 20260505202531 | 10 | 11 | 4.8 | 12.9 | 0.00 | 0.00 | 0.00 | 95 | 1007.8 |
| 20260505202030 | 10 | 3 | 4.8 | 9.7 | 0.00 | 0.00 | 0.00 | 95 | 1007.9 |
| 20260505201531 | 10 | 13 | 6.4 | 11.3 | 0.00 | 0.00 | 0.00 | 95 | 1008.0 |
| 20260505201029 | 10 | 4 | 4.8 | 12.9 | 0.00 | 0.00 | 0.00 | 95 | 1008.0 |
| 20260505200530 | 10 | 348 | 6.4 | 14.5 | 0.00 | 0.00 | 0.00 | 95 | 1008.0 |
| 20260505200028 | 10 | 357 | 8.0 | 14.5 | 0.00 | 0.00 | 0.00 | 95 | 1007.5 |
| 20260505195531 | 10 | 6 | 4.8 | 14.5 | 0.00 | 0.00 | 0.00 | 95 | 1007.2 |
| 20260505195028 | 10 | 14 | 8.0 | 17.7 | 0.00 | 0.00 | 0.00 | 95 | 1007.1 |
| 20260505194528 | 10 | 20 | 8.0 | 16.1 | 0.00 | 0.00 | 0.00 | 95 | 1007.1 |
| 20260505194030 | 10 | 21 | 9.7 | 16.1 | 0.00 | 0.00 | 0.00 | 95 | 1007.2 |
| 20260505193530 | 10 | 355 | 6.4 | 16.1 | 0.00 | 0.00 | 0.00 | 95 | 1007.1 |
| 20260505193029 | 11 | 5 | 8.0 | 12.9 | 0.00 | 0.00 | 0.00 | 95 | 1007.2 |
| 20260505192530 | 11 | 6 | 6.4 | 16.1 | 0.00 | 0.00 | 0.00 | 95 | 1007.4 |
| 20260505192029 | 11 | 25 | 8.0 | 16.1 | 0.00 | 0.00 | 0.00 | 95 | 1007.5 |
| 20260505191529 | 11 | 354 | 4.8 | 14.5 | 0.00 | 0.00 | 0.00 | 95 | 1008.0 |
| 20260505191031 | 11 | 347 | 4.8 | 11.3 | 0.00 | 0.00 | 0.00 | 95 | 1007.9 |
| 20260505190531 | 11 | 9 | 6.4 | 14.5 | 0.00 | 0.00 | 0.00 | 95 | 1007.7 |
| 20260505190031 | 11 | 11 | 6.4 | 12.9 | 0.00 | 0.00 | 0.00 | 95 | 1007.5 |
| 20260505185530 | 11 | 12 | 6.4 | 14.5 | 0.00 | 0.00 | 0.00 | 95 | 1007.5 |
| 20260505185037 | 11 | 10 | 3.2 | 12.9 | 0.00 | 0.00 | 0.00 | 94 | 1007.4 |
| 20260505184529 | 11 | 12 | 4.8 | 14.5 | 0.00 | 0.00 | 0.00 | 94 | 1007.3 |
| 20260505184028 | 11 | 8 | 8.0 | 14.5 | 0.00 | 0.00 | 0.00 | 94 | 1007.1 |
| 20260505183531 | 11 | 13 | 6.4 | 14.5 | 0.00 | 0.00 | 0.00 | 94 | 1006.9 |
| 20260505183029 | 11 | 13 | 9.7 | 14.5 | 0.00 | 0.00 | 0.00 | 94 | 1007.0 |
| 20260505182531 | 11 | 3 | 6.4 | 14.5 | 0.00 | 0.00 | 0.00 | 93 | 1007.3 |
| 20260505182034 | 11 | 22 | 4.8 | 11.3 | 0.00 | 0.00 | 0.00 | 93 | 1007.3 |
| 20260505181531 | 11 | 28 | 6.4 | 14.5 | 0.00 | 0.00 | 0.00 | 93 | 1007.2 |
| 20260505181030 | 12 | 7 | 8.0 | 14.5 | 0.00 | 0.00 | 0.00 | 93 | 1007.2 |
| 20260505180532 | 12 | 354 | 6.4 | 14.5 | 0.00 | 0.00 | 0.00 | 93 | 1007.3 |
| 20260505180028 | 12 | 11 | 8.0 | 12.9 | 0.00 | 0.00 | 0.00 | 92 | 1007.2 |
| 20260505175531 | 12 | 11 | 6.4 | 12.9 | 0.00 | 0.00 | 0.00 | 92 | 1007.2 |
| 20260505175029 | 12 | 351 | 1.6 | 14.5 | 0.00 | 0.00 | 0.00 | 92 | 1007.3 |
| 20260505174531 | 12 | 17 | 8.0 | 16.1 | 0.00 | 0.00 | 0.00 | 92 | 1007.1 |
| 20260505174031 | 12 | 9 | 6.4 | 12.9 | 0.00 | 0.00 | 0.00 | 92 | 1007.1 |
| 20260505173531 | 12 | 13 | 3.2 | 12.9 | 0.00 | 0.00 | 0.00 | 92 | 1007.1 |
| 20260505173033 | 12 | 9 | 4.8 | 12.9 | 0.00 | 0.00 | 0.00 | 92 | 1007.1 |
| 20260505172531 | 12 | 13 | 6.4 | 12.9 | 0.00 | 0.00 | 0.00 | 92 | 1007.1 |
| 20260505172032 | 13 | 9 | 6.4 | 12.9 | 0.00 | 0.00 | 0.00 | 92 | 1007.1 |
| 20260505171531 | 13 | 341 | 3.2 | 12.9 | 0.00 | 0.00 | 0.00 | 92 | 1007.1 |
| 20260505171031 | 13 | 343 | 6.4 | 12.9 | 0.00 | 0.00 | 0.00 | 92 | 1007.1 |
| 20260505170530 | 13 | 8 | 6.4 | 14.5 | 0.00 | 0.00 | 0.00 | 92 | 1006.9 |
| 20260505170030 | 13 | 11 | 4.8 | 9.7 | 0.00 | 0.00 | 0.00 | 93 | 1007.1 |
| 20260505165529 | 13 | 14 | 3.2 | 9.7 | 0.00 | 0.00 | 0.00 | 93 | 1007.1 |
| 20260505165028 | 13 | 10 | 3.2 | 11.3 | 0.00 | 0.00 | 0.00 | 93 | 1007.0 |
| 20260505164531 | 13 | 8 | 3.2 | 9.7 | 0.00 | 0.00 | 0.00 | 93 | 1006.9 |
| 20260505163542 | 13 | 25 | 3.2 | 12.9 | 0.00 | 0.00 | 0.00 | 92 | 1006.8 |
| 20260505163033 | 14 | 28 | 8.0 | 12.9 | 0.00 | 0.00 | 0.00 | 92 | 1006.8 |
| 20260505162529 | 14 | 28 | 8.0 | 14.5 | 0.00 | 0.00 | 0.00 | 92 | 1006.8 |
| 20260505162030 | 14 | 19 | 6.4 | 12.9 | 0.00 | 0.00 | 0.00 | 92 | 1006.8 |
| 20260505161531 | 14 | 25 | 6.4 | 11.3 | 0.00 | 0.00 | 0.00 | 92 | 1006.9 |
| 20260505161030 | 15 | 12 | 4.8 | 9.7 | 0.00 | 0.00 | 0.00 | 92 | 1006.9 |
| 20260505160532 | 15 | 31 | 3.2 | 11.3 | 0.00 | 0.00 | 0.00 | 91 | 1006.8 |
| 20260505153031 | 17 | 18 | 4.8 | 9.7 | 0.00 | 0.00 | 0.00 | 89 | 1006.4 |
| 20260505152532 | 16 | 41 | 4.8 | 9.7 | 0.00 | 0.00 | 0.00 | 89 | 1006.3 |
| 20260505151530 | 16 | 39 | 4.8 | 14.5 | 0.00 | 0.00 | 0.00 | 90 | 1006.1 |
| 20260505151031 | 16 | 54 | 9.7 | 14.5 | 0.00 | 0.00 | 0.00 | 91 | 1006.1 |
| 20260505150530 | 16 | 66 | 3.2 | 12.9 | 0.00 | 0.00 | 0.00 | 92 | 1006.2 |
| 20260505140530 | 15 | 92 | 3.2 | 12.9 | 0.00 | 0.00 | 0.00 | 96 | 1006.7 |
| 20260505125030 | 14 | 14 | 3.2 | 8.0 | 0.00 | 0.00 | 0.00 | 97 | 1006.2 |
| 20260505124531 | 14 | 22 | 3.2 | 6.4 | 0.00 | 0.00 | 0.00 | 97 | 1006.3 |
| 20260505124029 | 14 | 27 | 3.2 | 4.8 | 0.00 | 0.00 | 0.00 | 97 | 1006.1 |
| 20260505123530 | 14 | 26 | 3.2 | 6.4 | 0.00 | 0.00 | 0.00 | 97 | 1006.0 |
| 20260505123030 | 14 | 4 | 1.6 | 4.8 | 0.00 | 0.00 | 0.00 | 97 | 1006.1 |
| 20260505122528 | 14 | 29 | 3.2 | 4.8 | 0.00 | 0.00 | 0.00 | 97 | 1005.9 |
| 20260505122028 | 14 | 25 | 3.2 | 4.8 | 0.00 | 0.00 | 0.00 | 97 | 1006.0 |
| 20260505121528 | 14 | 28 | 3.2 | 4.8 | 0.00 | 0.00 | 0.00 | 97 | 1005.8 |
| 20260505121031 | 14 | 18 | 3.2 | 6.4 | 0.00 | 0.00 | 0.00 | 97 | 1006.0 |
| 20260505120532 | 14 | 19 | 3.2 | 6.4 | 0.00 | 0.00 | 0.00 | 97 | 1005.9 |
| 20260505120032 | 14 | 24 | 3.2 | 4.8 | 0.00 | 0.00 | 0.00 | 96 | 1006.0 |
| 20260505115529 | 14 | 31 | 1.6 | 4.8 | 0.00 | 0.00 | 0.00 | 96 | 1005.9 |
| 20260505115029 | 14 | 336 | 3.2 | 4.8 | 0.00 | 0.00 | 0.00 | 96 | 1006.0 |
| 20260505114530 | 14 | 5 | 1.6 | 6.4 | 0.00 | 0.00 | 0.00 | 96 | 1005.8 |
| 20260505114030 | 14 | 305 | 3.2 | 11.3 | 0.00 | 0.00 | 0.00 | 96 | 1005.3 |
| 20260505113529 | 14 | 7 | 1.6 | 6.4 | 0.00 | 0.00 | 0.00 | 96 | 1005.6 |
| 20260505113031 | 14 | 162 | 1.6 | 11.3 | 0.00 | 0.00 | 0.00 | 96 | 1005.1 |
| 20260505112531 | 14 | 165 | 6.4 | 9.7 | 0.00 | 0.00 | 0.00 | 96 | 1004.9 |
| 20260505112028 | 14 | 164 | 6.4 | 12.9 | 0.00 | 0.00 | 0.00 | 96 | 1005.0 |
| 20260505111530 | 14 | 168 | 6.4 | 11.3 | 0.00 | 0.00 | 0.00 | 96 | 1004.9 |
| 20260505111028 | 14 | 163 | 8.0 | 14.5 | 0.00 | 0.00 | 0.00 | 96 | 1005.1 |
| 20260505110528 | 15 | 193 | 6.4 | 14.5 | 0.00 | 0.00 | 0.00 | 96 | 1005.0 |
| 20260505102029 | 15 | 157 | 8.0 | 19.3 | 0.00 | 0.00 | 0.00 | 95 | 1005.3 |
| 20260505101532 | 15 | 194 | 11.3 | 20.9 | 0.00 | 0.00 | 0.00 | 95 | 1005.6 |
| 20260505101028 | 15 | 188 | 12.9 | 20.9 | 0.00 | 0.00 | 0.00 | 95 | 1005.2 |
| 20260505100529 | 15 | 202 | 6.4 | 12.9 | 0.00 | 0.00 | 0.00 | 95 | 1005.1 |
| 20260505100031 | 15 | 160 | 8.0 | 14.5 | 0.00 | 0.00 | 0.00 | 95 | 1005.1 |
| 20260505095528 | 15 | 168 | 6.4 | 14.5 | 0.00 | 0.00 | 0.00 | 95 | 1005.0 |
| 20260505095030 | 15 | 147 | 6.4 | 12.9 | 0.00 | 0.00 | 0.00 | 95 | 1005.1 |
| 20260505094528 | 15 | 155 | 6.4 | 12.9 | 0.00 | 0.00 | 0.00 | 95 | 1005.5 |
| 20260505094028 | 15 | 164 | 6.4 | 11.3 | 0.00 | 0.00 | 0.00 | 95 | 1005.6 |
| 20260505093531 | 15 | 166 | 6.4 | 9.7 | 0.00 | 0.00 | 0.00 | 95 | 1005.7 |
| 20260505093031 | 15 | 144 | 3.2 | 4.8 | 0.00 | 0.00 | 0.00 | 94 | 1005.7 |
| 20260505092529 | 15 | 133 | 0.0 | 4.8 | 0.00 | 0.00 | 0.00 | 94 | 1005.9 |
| 20260505092029 | 15 | 131 | 3.2 | 6.4 | 0.00 | 0.00 | 0.00 | 94 | 1006.0 |
| 20260505091530 | 15 | 134 | 4.8 | 6.4 | 0.00 | 0.00 | 0.00 | 94 | 1006.0 |
| 20260505091028 | 15 | 44 | 0.0 | 4.8 | 0.00 | 0.00 | 0.00 | 94 | 1006.0 |
| 20260505090531 | 15 | 36 | 1.6 | 3.2 | 0.00 | 0.00 | 0.00 | 94 | 1006.1 |
| 20260505090030 | 15 | 346 | 1.6 | 3.2 | 0.00 | 0.00 | 0.00 | 94 | 1006.2 |
| 20260505085528 | 15 | 202 | 0.0 | 6.4 | 0.00 | 0.00 | 0.00 | 94 | 1006.7 |
| 20260505085030 | 15 | 275 | 3.2 | 6.4 | 0.00 | 0.00 | 0.00 | 93 | 1007.0 |
| 20260505084530 | 15 | 257 | 3.2 | 6.4 | 0.00 | 0.00 | 0.00 | 93 | 1006.8 |
| 20260505084030 | 15 | 261 | 6.4 | 6.4 | 0.00 | 0.00 | 0.00 | 93 | 1006.7 |
| 20260505083528 | 15 | 117 | 3.2 | 8.0 | 0.00 | 0.00 | 0.00 | 93 | 1005.8 |
| 20260505083029 | 15 | 175 | 1.6 | 6.4 | 0.00 | 0.00 | 0.00 | 92 | 1006.3 |
| 20260505082528 | 15 | 219 | 3.2 | 4.8 | 0.00 | 0.00 | 0.00 | 92 | 1006.2 |
| 20260505082030 | 15 | 328 | 0.0 | 3.2 | 0.00 | 0.00 | 0.00 | 92 | 1006.1 |
| 20260505081530 | 15 | 0 | 0.0 | 8.0 | 0.00 | 0.00 | 0.00 | 92 | 1006.1 |
| 20260505081028 | 15 | 227 | 6.4 | 9.7 | 0.00 | 0.00 | 0.00 | 91 | 1006.7 |
| 20260505080529 | 15 | 231 | 3.2 | 9.7 | 0.00 | 0.00 | 0.00 | 90 | 1006.7 |
| 20260505080030 | 15 | 214 | 6.4 | 11.3 | 0.00 | 0.00 | 0.00 | 90 | 1007.1 |
| 20260505075528 | 15 | 256 | 9.7 | 14.5 | 0.00 | 0.00 | 0.00 | 90 | 1007.1 |
| 20260505075029 | 15 | 245 | 6.4 | 16.1 | 0.00 | 0.00 | 0.00 | 90 | 1007.0 |
| 20260505074529 | 15 | 260 | 8.0 | 12.9 | 0.00 | 0.00 | 0.00 | 90 | 1006.9 |
| 20260505074031 | 15 | 256 | 6.4 | 8.0 | 0.00 | 0.00 | 0.00 | 89 | 1006.8 |
| 20260505073531 | 15 | 288 | 4.8 | 9.7 | 0.00 | 0.00 | 0.00 | 88 | 1007.0 |
| 20260505073028 | 15 | 250 | 6.4 | 12.9 | 0.00 | 0.00 | 0.00 | 87 | 1006.7 |
| 20260505072530 | 15 | 230 | 11.3 | 19.3 | 0.00 | 0.00 | 0.00 | 87 | 1006.9 |
| 20260505072030 | 15 | 234 | 9.7 | 16.1 | 0.00 | 0.00 | 0.00 | 86 | 1006.8 |
| 20260505071529 | 16 | 208 | 12.9 | 22.5 | 0.00 | 0.00 | 0.00 | 86 | 1006.9 |
| 20260505071036 | 16 | 208 | 14.5 | 20.9 | 0.00 | 0.00 | 0.00 | 85 | 1006.6 |
| 20260505070529 | 16 | 217 | 8.0 | 17.7 | 0.00 | 0.00 | 0.00 | 85 | 1006.5 |
| 20260505070030 | 16 | 211 | 9.7 | 19.3 | 0.00 | 0.00 | 0.00 | 83 | 1006.6 |
| 20260505065531 | 16 | 214 | 11.3 | 14.5 | 0.00 | 0.00 | 0.00 | 82 | 1006.5 |
| 20260505065028 | 16 | 210 | 11.3 | 22.5 | 0.00 | 0.00 | 0.00 | 81 | 1006.4 |
| 20260505064529 | 16 | 211 | 16.1 | 22.5 | 0.00 | 0.00 | 0.00 | 79 | 1006.2 |
| 20260505064030 | 16 | 204 | 17.7 | 22.5 | 0.00 | 0.00 | 0.00 | 79 | 1006.1 |
| 20260505063528 | 17 | 193 | 14.5 | 24.1 | 0.00 | 0.00 | 0.00 | 78 | 1005.9 |
| 20260505063030 | 17 | 196 | 11.3 | 19.3 | 0.00 | 0.00 | 0.00 | 76 | 1006.0 |
| 20260505062529 | 17 | 192 | 9.7 | 17.7 | 0.00 | 0.00 | 0.00 | 74 | 1006.1 |
| 20260505062030 | 17 | 174 | 11.3 | 16.1 | 0.00 | 0.00 | 0.00 | 74 | 1006.1 |
| 20260505061530 | 17 | 187 | 9.7 | 14.5 | 0.00 | 0.00 | 0.00 | 73 | 1006.1 |
| 20260505061029 | 17 | 152 | 4.8 | 12.9 | 0.00 | 0.00 | 0.00 | 72 | 1006.3 |
| 20260505060530 | 17 | 177 | 4.8 | 14.5 | 0.00 | 0.00 | 0.00 | 72 | 1006.4 |
| 20260505060030 | 17 | 206 | 4.8 | 16.1 | 0.00 | 0.00 | 0.00 | 71 | 1006.5 |
| 20260505055529 | 17 | 177 | 6.4 | 12.9 | 0.00 | 0.00 | 0.00 | 71 | 1006.6 |
| 20260505055028 | 17 | 165 | 8.0 | 14.5 | 0.00 | 0.00 | 0.00 | 71 | 1006.6 |
| 20260505054529 | 17 | 146 | 4.8 | 11.3 | 0.00 | 0.00 | 0.00 | 71 | 1006.6 |
| 20260505054029 | 18 | 178 | 3.2 | 11.3 | 0.00 | 0.00 | 0.00 | 71 | 1006.5 |
| 20260505053531 | 18 | 142 | 4.8 | 11.3 | 0.00 | 0.00 | 0.00 | 70 | 1006.6 |
| 20260505053031 | 18 | 162 | 4.8 | 12.9 | 0.00 | 0.00 | 0.00 | 70 | 1006.5 |
| 20260505052529 | 18 | 204 | 1.6 | 11.3 | 0.00 | 0.00 | 0.00 | 70 | 1006.6 |
| 20260505052029 | 18 | 136 | 4.8 | 8.0 | 0.00 | 0.00 | 0.00 | 70 | 1006.3 |
| 20260505051528 | 18 | 147 | 3.2 | 11.3 | 0.00 | 0.00 | 0.00 | 70 | 1006.2 |
| 20260505051029 | 18 | 39 | 1.6 | 9.7 | 0.00 | 0.00 | 0.00 | 70 | 1006.2 |
| 20260505050528 | 18 | 154 | 0.0 | 8.0 | 0.00 | 0.00 | 0.00 | 70 | 1006.3 |
| 20260505041528 | 18 | 171 | 4.8 | 12.9 | 0.00 | 0.00 | 0.00 | 68 | 1006.7 |
| 20260505041029 | 18 | 149 | 4.8 | 9.7 | 0.00 | 0.00 | 0.00 | 68 | 1006.8 |
| 20260505040528 | 18 | 159 | 3.2 | 14.5 | 0.00 | 0.00 | 0.00 | 68 | 1007.0 |
| 20260505040028 | 18 | 173 | 6.4 | 14.5 | 0.00 | 0.00 | 0.00 | 68 | 1007.1 |
| 20260505035530 | 18 | 198 | 8.0 | 14.5 | 0.00 | 0.00 | 0.00 | 67 | 1007.1 |
| 20260505035029 | 18 | 206 | 6.4 | 8.0 | 0.00 | 0.00 | 0.00 | 67 | 1007.1 |
| 20260505034528 | 19 | 185 | 3.2 | 11.3 | 0.00 | 0.00 | 0.00 | 66 | 1007.2 |
| 20260505034028 | 19 | 136 | 4.8 | 12.9 | 0.00 | 0.00 | 0.00 | 66 | 1007.2 |
| 20260505033528 | 19 | 144 | 8.0 | 16.1 | 0.00 | 0.00 | 0.00 | 66 | 1007.1 |
| 20260505033028 | 19 | 153 | 9.7 | 16.1 | 0.00 | 0.00 | 0.00 | 66 | 1007.2 |
| 20260505032528 | 19 | 157 | 9.7 | 14.5 | 0.00 | 0.00 | 0.00 | 66 | 1007.2 |
| 20260505032030 | 19 | 170 | 6.4 | 12.9 | 0.00 | 0.00 | 0.00 | 65 | 1007.2 |
| 20260505031529 | 19 | 162 | 6.4 | 11.3 | 0.00 | 0.00 | 0.00 | 65 | 1007.4 |
| 20260505031028 | 19 | 166 | 4.8 | 11.3 | 0.00 | 0.00 | 0.00 | 65 | 1007.3 |
| 20260505030529 | 19 | 172 | 6.4 | 9.7 | 0.00 | 0.00 | 0.00 | 65 | 1007.3 |
| 20260505030028 | 19 | 198 | 3.2 | 9.7 | 0.00 | 0.00 | 0.00 | 65 | 1007.2 |
| 20260505025528 | 19 | 166 | 4.8 | 9.7 | 0.00 | 0.00 | 0.00 | 65 | 1007.2 |
| 20260505025029 | 19 | 184 | 4.8 | 11.3 | 0.00 | 0.00 | 0.00 | 65 | 1007.3 |
| 20260505024528 | 19 | 145 | 8.0 | 11.3 | 0.00 | 0.00 | 0.00 | 64 | 1007.3 |
| 20260505024028 | 19 | 194 | 4.8 | 12.9 | 0.00 | 0.00 | 0.00 | 65 | 1007.2 |
| 20260505023528 | 20 | 179 | 6.4 | 9.7 | 0.00 | 0.00 | 0.00 | 64 | 1007.1 |
| 20260505023028 | 20 | 195 | 6.4 | 9.7 | 0.00 | 0.00 | 0.00 | 64 | 1007.2 |
| 20260505022528 | 20 | 179 | 6.4 | 11.3 | 0.00 | 0.00 | 0.00 | 64 | 1007.2 |
| 20260505022029 | 20 | 191 | 6.4 | 9.7 | 0.00 | 0.00 | 0.00 | 64 | 1007.1 |
| 20260505021531 | 20 | 190 | 4.8 | 9.7 | 0.00 | 0.00 | 0.00 | 63 | 1007.0 |
| 20260505021029 | 20 | 172 | 1.6 | 9.7 | 0.00 | 0.00 | 0.00 | 63 | 1007.0 |
| 20260505020529 | 20 | 191 | 4.8 | 11.3 | 0.00 | 0.00 | 0.00 | 63 | 1006.9 |
| 20260505020030 | 20 | 188 | 6.4 | 11.3 | 0.00 | 0.00 | 0.00 | 62 | 1006.8 |
| 20260505015528 | 20 | 203 | 8.0 | 14.5 | 0.00 | 0.00 | 0.00 | 62 | 1006.8 |